Tracking 27420 objects as of 28-May-2023
HD Live streaming from Space Station
objects crossing your sky now

STARLINK-5916

Track STARLINK-5916 now!
10-day predictions
STARLINK-5916 is classified as:


NORAD ID: 55988
Int'l Code: 2023-042C
Perigee: 559.4 km
Apogee: 561.2 km
Inclination: 43.0 °
Period: 95.7 minutes
Semi major axis: 6931 km
RCS: Unknown
Launch date: March 24, 2022
Source: United States (US)
Launch site: AIR FORCE EASTERN TEST RANGE (AFETR)
Your satellite tracking list
Your tracking list is empty




NASA's NSSDC Master Catalog

Two Line Element Set (TLE):
1 55988U 23042C   23148.19664951 -.00002034  00000-0 -12849-3 0  9993
2 55988  42.9996 180.2861 0001287 259.6825 100.3873 15.04467989  9999
Source of the keplerian elements: AFSPC